Lincolnton, NC

3:37 PM EDT on July 26, 2017 (GMT -0400)
Lincolnton-Lincoln County Regional

Weather History for KIPJ - February, 2013

Change the Weather History Date:

Thursday, February 21, 2013

  Actual Average (KCLT) Record (KCLT)
Temperature  
Mean Temperature 41 °F -  
Max Temperature 59 °F 57 °F 75 °F (2011)
Min Temperature 23 °F 34 °F 6 °F (1896)
Degree Days  
Heating Degree Days 24    
Moisture  
Dew Point 19 °F    
Average Humidity 50    
Maximum Humidity 93    
Minimum Humidity 16    
Precipitation  
Precipitation 0.02 in - - ()
Sea Level Pressure  
Sea Level Pressure 30.15 in    
Wind  
Wind Speed 1 mph (West)    
Max Wind Speed 7 mph    
Max Gust Speed -    
Visibility 10 miles    
Events Rain    
Averages and records for this station are not official NWS values.
T = Trace of Precipitation, MM = Missing Value Source: NWS Daily Summary

Daily Weather History Graph

Daily Weather History Graph

Search for Another Location

Airport or City:

Trip Planner

Search our weather history database for the weather conditions in past years. The results will help you decide how hot, cold, wet, or windy it might be!

Date:

Astronomy

Feb. 21, 2013 Rise Set
Actual Time 7:04 AM EST 6:12 PM EST
Civil Twilight 6:38 AM EST 6:38 PM EST
Nautical Twilight 6:08 AM EST 7:08 PM EST
Astronomical Twilight 5:39 AM EST 7:37 PM EST
Moon 2:31 PM EST (2/21) 4:02 AM EST (2/21)
Length of Visible Light 12h 00m
Length of Day
11h 08m
Waxing Gibbous, 83% of the Moon is Illuminated
Feb 21
Waxing Gibbous
Feb 25
Full
Mar 4
Last Quarter
Mar 11
New
Mar 19
First Quarter

Hourly Weather History & Observations

Time (EST) Temp. Windchill Dew Point Humidity Pressure Visibility Wind Dir Wind Speed Gust Speed Precip Events Conditions
12:15 AM 30.2 °F - 14.0 °F 51% 30.11 in 10.0 mi Calm Calm - N/A   Clear
12:35 AM 28.4 °F - 21.2 °F 74% 30.11 in 10.0 mi Calm Calm - N/A   Clear
12:55 AM 26.6 °F - 19.4 °F 74% 30.11 in 10.0 mi Calm Calm - N/A   Clear
1:15 AM 28.4 °F - 17.6 °F 64% 30.12 in 10.0 mi Calm Calm - N/A   Clear
1:35 AM 26.6 °F - 17.6 °F 69% 30.12 in 10.0 mi Calm Calm - N/A   Clear
1:55 AM 28.4 °F - 17.6 °F 64% 30.12 in 10.0 mi Calm Calm - N/A   Clear
2:15 AM 26.6 °F - 21.2 °F 80% 30.12 in 10.0 mi Calm Calm - N/A   Clear
2:35 AM 26.6 °F - 19.4 °F 74% 30.12 in 10.0 mi Calm Calm - N/A   Clear
2:55 AM 26.6 °F - 17.6 °F 69% 30.13 in 10.0 mi Calm Calm - N/A   Clear
3:15 AM 24.8 °F - 19.4 °F 80% 30.13 in 10.0 mi Calm Calm - N/A   Clear
3:35 AM 26.6 °F - 17.6 °F 69% 30.13 in 10.0 mi Calm Calm - N/A   Clear
3:55 AM 24.8 °F - 17.6 °F 74% 30.13 in 10.0 mi Calm Calm - N/A   Clear
4:15 AM 24.8 °F - 19.4 °F 80% 30.13 in 10.0 mi Calm Calm - N/A   Clear
4:35 AM 24.8 °F - 19.4 °F 80% 30.14 in 10.0 mi Calm Calm - N/A   Clear
4:55 AM 23.0 °F - 17.6 °F 80% 30.15 in 10.0 mi Calm Calm - N/A   Clear
5:15 AM 24.8 °F - 19.4 °F 80% 30.14 in 10.0 mi Calm Calm - N/A   Clear
5:35 AM 23.0 °F - 19.4 °F 86% 30.14 in 10.0 mi Calm Calm - N/A   Clear
5:55 AM 24.8 °F - 19.4 °F 80% 30.15 in 10.0 mi Calm Calm - N/A   Clear
6:15 AM 23.0 °F - 17.6 °F 80% 30.17 in 10.0 mi Calm Calm - N/A   Clear
6:55 AM 23.0 °F - 19.4 °F 86% 30.18 in 10.0 mi Calm Calm - N/A   Clear
7:15 AM 23.0 °F - 19.4 °F 86% 30.18 in 10.0 mi Calm Calm - N/A   Clear
7:35 AM 23.0 °F - 19.4 °F 86% 30.19 in 10.0 mi Calm Calm - N/A   Clear
7:55 AM 26.6 °F - 21.2 °F 80% 30.19 in 10.0 mi Calm Calm - N/A   Clear
8:15 AM 30.2 °F - 23.0 °F 75% 30.20 in 10.0 mi Calm Calm - N/A   Clear
8:35 AM 32.0 °F - 21.2 °F 64% 30.21 in 10.0 mi Calm Calm - N/A   Clear
8:55 AM 35.6 °F - 17.6 °F 48% 30.20 in 10.0 mi Calm Calm - N/A   Clear
9:15 AM 37.4 °F 34.9 °F 19.4 °F 48% 30.20 in 10.0 mi NNE 3.5 mph - N/A   Clear
9:35 AM 37.4 °F 34.9 °F 15.8 °F 41% 30.21 in 10.0 mi North 3.5 mph - N/A   Clear
9:55 AM 39.2 °F - 14.0 °F 36% 30.21 in 10.0 mi Calm Calm - N/A   Clear
10:15 AM 41.0 °F - 14.0 °F 33% 30.21 in 10.0 mi Calm Calm - N/A   Clear
10:35 AM 42.8 °F 41.1 °F 14.0 °F 31% 30.20 in 10.0 mi South 3.5 mph - N/A   Clear
10:55 AM 44.6 °F - 12.2 °F 27% 30.21 in 10.0 mi Calm Calm - N/A   Clear
11:15 AM 44.6 °F - 14.0 °F 29% 30.19 in 10.0 mi Calm Calm - N/A   Clear
11:35 AM 46.4 °F - 12.2 °F 25% 30.18 in 10.0 mi Calm Calm - N/A   Clear
11:55 AM 50.0 °F - 14.0 °F 24% 30.18 in 10.0 mi Calm Calm - N/A   Clear
12:15 PM 51.8 °F - 10.4 °F 19% 30.16 in 10.0 mi WSW 5.8 mph - N/A   Clear
12:35 PM 51.8 °F - 12.2 °F 21% 30.15 in 10.0 mi West 4.6 mph - N/A   Clear
12:55 PM 53.6 °F - 10.4 °F 18% 30.13 in 10.0 mi WSW 3.5 mph - N/A   Clear
1:15 PM 53.6 °F - 12.2 °F 19% 30.11 in 10.0 mi West 4.6 mph - N/A   Clear
1:35 PM 53.6 °F - 10.4 °F 18% 30.11 in 10.0 mi West 3.5 mph - N/A   Clear
1:55 PM 55.4 °F - 10.4 °F 17% 30.10 in 10.0 mi South 6.9 mph - N/A   Clear
2:15 PM 55.4 °F - 12.2 °F 18% 30.09 in 10.0 mi SE 4.6 mph - N/A   Clear
2:35 PM 55.4 °F - 12.2 °F 18% 30.09 in 10.0 mi NNE 3.5 mph - N/A   Clear
2:55 PM 57.2 °F - 12.2 °F 17% 30.08 in 10.0 mi East 5.8 mph - N/A   Clear
3:15 PM 55.4 °F - 12.2 °F 18% 30.10 in 10.0 mi Calm Calm - N/A   Clear
3:35 PM 59.0 °F - 12.2 °F 16% 30.10 in 10.0 mi SE 4.6 mph - N/A   Clear
3:55 PM 57.2 °F - 10.4 °F 16% 30.10 in 10.0 mi Calm Calm - N/A   Clear
4:15 PM 57.2 °F - 12.2 °F 17% 30.11 in 10.0 mi SW 3.5 mph - N/A   Clear
4:35 PM 55.4 °F - 12.2 °F 18% 30.09 in 10.0 mi Calm Calm - N/A   Clear
4:55 PM 55.4 °F - 12.2 °F 18% 30.08 in 10.0 mi Calm Calm - N/A   Clear
5:15 PM 55.4 °F - 12.2 °F 18% 30.10 in 10.0 mi Calm Calm - N/A   Clear
5:35 PM 53.6 °F - 14.0 °F 21% 30.09 in 10.0 mi Calm Calm - N/A   Clear
5:55 PM 51.8 °F - 19.4 °F 28% 30.10 in 10.0 mi Calm Calm - N/A   Clear
6:15 PM 50.0 °F - 21.2 °F 32% 30.12 in 10.0 mi Calm Calm - N/A   Clear
6:35 PM 50.0 °F - 21.2 °F 32% 30.12 in 10.0 mi Calm Calm - N/A   Clear
6:55 PM 46.4 °F - 23.0 °F 40% 30.12 in 10.0 mi Calm Calm - N/A   Clear
7:15 PM 46.4 °F 45.2 °F 21.2 °F 37% 30.11 in 10.0 mi North 3.5 mph - N/A   Clear
7:35 PM 48.2 °F - 19.4 °F 32% 30.12 in 10.0 mi NNE 4.6 mph - N/A   Clear
7:55 PM 48.2 °F - 19.4 °F 32% 30.13 in 10.0 mi Calm Calm - N/A   Clear
8:15 PM 46.4 °F - 19.4 °F 34% 30.13 in 10.0 mi Calm Calm - N/A   Clear
8:35 PM 44.6 °F - 26.6 °F 49% 30.13 in 10.0 mi Calm Calm - N/A   Clear
8:55 PM 44.6 °F - 23.0 °F 43% 30.14 in 10.0 mi Calm Calm - N/A   Clear
9:15 PM 44.6 °F - 23.0 °F 43% 30.14 in 10.0 mi Calm Calm - N/A   Clear
9:35 PM 42.8 °F - 30.2 °F 61% 30.16 in 10.0 mi Calm Calm - N/A   Mostly Cloudy
9:55 PM 44.6 °F 41.4 °F 30.2 °F 57% 30.21 in 10.0 mi WSW 5.8 mph - N/A Rain Light Rain
10:15 PM 44.6 °F 43.1 °F 30.2 °F 57% 30.21 in 10.0 mi West 3.5 mph - N/A   Light Drizzle
10:35 PM 42.8 °F 41.1 °F 32.0 °F 66% 30.19 in 10.0 mi NNW 3.5 mph - N/A Rain Light Rain
10:55 PM 41.0 °F - 35.6 °F 81% 30.19 in 10.0 mi Calm Calm - N/A Rain Light Rain
11:15 PM 41.0 °F - 35.6 °F 81% 30.21 in 10.0 mi Calm Calm - 0.01 in Rain Light Rain
11:35 PM 41.0 °F - 37.4 °F 87% 30.23 in 10.0 mi Calm Calm - 0.02 in Rain Light Rain
11:55 PM 41.0 °F - 39.2 °F 93% 30.27 in 10.0 mi Calm Calm - 0.02 in Rain Light Rain